TimeEST,TemperatureF,Dew PointF,Humidity,Sea Level PressureIn,VisibilityMPH,Wind Direction,Wind SpeedMPH,Gust SpeedMPH,PrecipitationIn,Events,Conditions,WindDirDegrees,DateUTC
12:53 AM,36.0,27.0,70,30.21,10.0,South,11.5,-,N/A,,Clear,180,2013-01-09 05:53:00
1:53 AM,36.0,28.0,73,30.18,10.0,South,10.4,-,N/A,,Clear,170,2013-01-09 06:53:00
2:53 AM,39.0,28.9,67,30.18,10.0,South,12.7,-,N/A,,Mostly Cloudy,190,2013-01-09 07:53:00
3:53 AM,41.0,30.0,65,30.17,10.0,South,12.7,-,N/A,,Overcast,190,2013-01-09 08:53:00
4:53 AM,42.1,30.9,65,30.16,10.0,SSW,15.0,-,N/A,,Overcast,210,2013-01-09 09:53:00
5:53 AM,42.1,32.0,67,30.17,10.0,SW,13.8,-,N/A,,Overcast,220,2013-01-09 10:53:00
6:53 AM,42.1,32.0,67,30.18,10.0,SW,15.0,-,0.00,Rain,Light Rain,220,2013-01-09 11:53:00
7:53 AM,41.0,34.0,76,30.19,10.0,SW,15.0,21.9,0.00,,Overcast,220,2013-01-09 12:53:00
8:53 AM,41.0,34.0,76,30.23,10.0,SW,18.4,-,N/A,,Clear,230,2013-01-09 13:53:00
9:53 AM,41.0,34.0,76,30.26,10.0,WSW,15.0,-,N/A,,Clear,240,2013-01-09 14:53:00
10:53 AM,42.1,34.0,73,30.28,10.0,WSW,17.3,-,N/A,,Clear,240,2013-01-09 15:53:00
11:53 AM,42.1,34.0,73,30.29,10.0,WSW,20.7,-,N/A,,Clear,250,2013-01-09 16:53:00
1:53 PM,43.0,34.0,71,30.28,10.0,WSW,16.1,-,N/A,,Clear,250,2013-01-09 18:53:00
2:53 PM,43.0,34.0,71,30.30,10.0,WSW,13.8,-,N/A,,Clear,240,2013-01-09 19:53:00
3:53 PM,43.0,30.9,62,30.32,10.0,WSW,15.0,-,N/A,,Clear,250,2013-01-09 20:53:00
4:53 PM,41.0,30.9,67,30.35,10.0,WSW,12.7,-,N/A,,Clear,250,2013-01-09 21:53:00
5:53 PM,39.9,30.0,68,30.38,10.0,WSW,12.7,-,N/A,,Clear,240,2013-01-09 22:53:00
6:53 PM,39.0,30.0,70,30.40,10.0,WSW,10.4,-,N/A,,Clear,240,2013-01-09 23:53:00
7:53 PM,37.9,30.0,73,30.42,10.0,WSW,10.4,-,N/A,,Clear,240,2013-01-10 00:53:00
8:53 PM,37.0,30.0,76,30.43,10.0,WSW,11.5,-,N/A,,Clear,250,2013-01-10 01:53:00
9:53 PM,35.1,30.0,82,30.46,10.0,WSW,9.2,-,N/A,,Clear,250,2013-01-10 02:53:00
10:53 PM,36.0,28.9,76,30.48,10.0,WSW,9.2,-,N/A,,Clear,240,2013-01-10 03:53:00
11:53 PM,35.1,28.0,76,30.52,10.0,WSW,4.6,-,N/A,,Clear,250,2013-01-10 04:53:00